map of APW home
Great Circle Mapper logo
APW - Airport
Location
City:  Apia, Upolu Island, Samoa (Western Samoa)
Name:Faleolo International Airport
ICAO / IATA:NSFA / APW

Details
Type:Airport (Aerodrome, Airfield)
Use:International (customs port of entry)
Latitude:1349'47"S (-13.829666)
Longitude:17159'50"W (-171.997166)
Elevation:58 ft (18 m)
Runways:1
Longest:9843 × 148 ft (3000 × 45 m), paved

Time
Time Zone:UTC-11
Local Time:

Weather
METAR:NSFA 211700Z 19004KT 9999 FEW020 BKN150 22/21 Q1012
TAF:NSFA 211551Z 2118/2218 VRB03KT 9999 FEW022
BECMG 2121/2123 09010KT
BECMG 2204/2206 VRB03KT

Related Locations
Nearby:
Farthest:DRRA: 12449 mi / 20034 km
Tessaoua, NE

Find:

   beyond  
but within

Other Information
Maps:
NOTAMs:
Links:
Sources:

  
flag of Samoa (Western Samoa)   

Sectional Chart

Flight Planning
at skyvector.com

Satellite Image

Google Maps Satellite View

 

Copyright © 2004-2014 Karl L. Swartz. All rights reserved.
The Great Circle Mapper name and logo are trademarks of the Great Circle Mapper.
All other trademarks mentioned herein belong to their respective owners.
Please see credits for attibutions and further copyright information.

  Follow gcmap on Facebook Follow gcmap on Twitter

hCard Microformat

Geo Microformat